Fowler, IL

8:25 PM CDT on August 30, 2016 (GMT -0500)
Quincy Regional-Baldwin

Weather History for KUIN - June, 2012

Change the Weather History Date:

Friday, June 15, 2012

  Actual Average Record
Temperature  
Mean Temperature 76 °F 72 °F  
Max Temperature 90 °F 82 °F 100 °F (1911)
Min Temperature 63 °F 63 °F 43 °F (1907)
Degree Days  
Heating Degree Days 0 0  
Month to date heating degree days 14  
Since 1 June heating degree days 14  
Since 1 July heating degree days 5580  
Cooling Degree Days 12 8  
Month to date cooling degree days 89  
Year to date cooling degree days 175  
Since 1 June cooling degree days 89  
Growing Degree Days 26 (Base 50)    
Moisture  
Dew Point 59 °F    
Average Humidity 60    
Maximum Humidity 93    
Minimum Humidity 27    
Precipitation  
Precipitation 0.12 in 0.13 in 1.18 in (1945)
Month to date precipitation 2.09  
Year to date precipitation 16.18  
Sea Level Pressure  
Sea Level Pressure 29.96 in    
Wind  
Wind Speed 9 mph (SSE)    
Max Wind Speed 20 mph    
Max Gust Speed 29 mph    
Visibility 10 miles    
Events Rain , Thunderstorm    
T = Trace of Precipitation, MM = Missing Value Source: NWS Daily Summary

Daily Weather History Graph

Daily Weather History Graph

Search for Another Location

Airport or City:

Trip Planner

Search our weather history database for the weather conditions in past years. The results will help you decide how hot, cold, wet, or windy it might be!

Date:

Astronomy

Jun. 15, 2012 Rise Set
Actual Time 5:35 AM CDT 8:35 PM CDT
Civil Twilight 5:02 AM CDT 9:08 PM CDT
Nautical Twilight 4:21 AM CDT 9:49 PM CDT
Astronomical Twilight 3:32 AM CDT 10:38 PM CDT
Moon 2:49 AM CDT (6/15) 5:15 PM CDT (6/15)
Length of Visible Light 16h 05m
Length of Day
14h 59m
Waning Crescent, 13% of the Moon is Illuminated
Jun 15
Waning Crescent
Jun 19
New
Jun 26
First Quarter
Jul 3
Full
Jul 10
Last Quarter

Hourly Weather History & Observations

Time (CDT) Temp. Heat Index Dew Point Humidity Pressure Visibility Wind Dir Wind Speed Gust Speed Precip Events Conditions
12:54 AM 69.1 °F - 57.0 °F 65% 29.98 in 10.0 mi SE 8.1 mph - N/A   Clear
1:54 AM 64.4 °F - 57.2 °F 77% 30.02 in 10.0 mi SE 5.8 mph - N/A   Clear
2:54 AM 68.0 °F - 57.0 °F 68% 29.98 in 10.0 mi SE 8.1 mph - N/A   Clear
3:54 AM 63.0 °F - 55.9 °F 78% 29.98 in 10.0 mi SSE 5.8 mph - N/A   Clear
4:54 AM 64.0 °F - 55.9 °F 75% 29.98 in 10.0 mi SE 5.8 mph - N/A   Clear
5:54 AM 63.0 °F - 55.9 °F 78% 29.98 in 10.0 mi SE 5.8 mph - N/A   Clear
6:54 AM 68.0 °F - 55.9 °F 65% 29.99 in 10.0 mi SSE 8.1 mph - N/A   Clear
7:54 AM 70.0 °F - 57.0 °F 63% 30.01 in 10.0 mi SSE 6.9 mph - N/A   Clear
8:54 AM 75.0 °F - 57.9 °F 55% 30.00 in 10.0 mi SSE 11.5 mph - N/A   Clear
9:54 AM 78.1 °F - 59.0 °F 52% 29.99 in 10.0 mi South 11.5 mph - N/A   Clear
10:54 AM 82.9 °F 82.8 °F 59.0 °F 44% 29.98 in 10.0 mi South 17.3 mph 25.3 mph N/A   Clear
11:54 AM 84.9 °F 84.2 °F 57.9 °F 40% 29.97 in 10.0 mi SSE 13.8 mph - N/A   Clear
12:54 PM 84.9 °F 84.4 °F 59.0 °F 41% 29.97 in 10.0 mi SE 11.5 mph - N/A   Clear
1:54 PM 87.1 °F 86.7 °F 60.1 °F 40% 29.96 in 10.0 mi SSE 11.5 mph - N/A   Clear
2:54 PM 90.0 °F 88.1 °F 55.9 °F 31% 29.95 in 10.0 mi SSE 13.8 mph 21.9 mph N/A   Clear
3:54 PM 90.0 °F - 52.0 °F 27% 29.94 in 10.0 mi SSE 15.0 mph - N/A   Clear
4:54 PM 89.1 °F 87.3 °F 55.9 °F 32% 29.91 in 10.0 mi SE 19.6 mph 25.3 mph N/A   Clear
5:54 PM 88.0 °F 86.5 °F 55.9 °F 34% 29.90 in 10.0 mi SE 19.6 mph 28.8 mph N/A   Clear
6:54 PM 86.0 °F 84.9 °F 57.0 °F 37% 29.88 in 10.0 mi SE 17.3 mph 26.5 mph N/A   Clear
7:54 PM 84.0 °F 83.5 °F 57.9 °F 41% 29.90 in 10.0 mi SE 12.7 mph 18.4 mph N/A   Clear
8:54 PM 79.0 °F - 62.1 °F 56% 29.93 in 10.0 mi Variable 3.5 mph - 0.00 in Rain Light Rain
9:39 PM 71.6 °F - 66.2 °F 83% 29.94 in 10.0 mi Variable 3.5 mph - 0.02 in Rain , Thunderstorm Light Thunderstorms and Rain
9:54 PM 72.0 °F - 66.9 °F 84% 29.93 in 10.0 mi NE 3.5 mph - 0.02 in Thunderstorm Thunderstorm
10:20 PM 71.6 °F - 66.2 °F 83% 29.98 in 10.0 mi West 11.5 mph 16.1 mph 0.00 in Rain , Thunderstorm Light Rain
10:44 PM 69.8 °F - 66.2 °F 88% 29.99 in 6.0 mi West 9.2 mph - 0.02 in Rain Rain
10:54 PM 70.0 °F - 66.9 °F 90% 29.96 in 3.0 mi WNW 8.1 mph - 0.08 in Rain Rain
11:54 PM 70.0 °F - 68.0 °F 93% 29.97 in 9.0 mi East 5.8 mph - 0.02 in   Overcast